Weather History for Anniston, AL

Change the Weather History Date:

Tuesday, May 7, 2013

  Actual Average Record
Temperature  
Mean Temperature 59 °F 68 °F  
Max Temperature 68 °F 79 °F 92 °F (1952)
Min Temperature 49 °F 56 °F 42 °F (1989)
Degree Days  
Heating Degree Days 8    
Growing Degree Days 7 (Base 50)    
Moisture  
Dew Point 49 °F    
Average Humidity 76    
Maximum Humidity 96    
Minimum Humidity 56    
Precipitation  
Precipitation 0.00 in 0.15 in 3.45 in (2003)
Month to date precipitation 2.77 1.01  
Year to date precipitation 28.20 19.68  
Sea Level Pressure  
Sea Level Pressure 29.97 in    
Wind  
Wind Speed 3 mph (WSW)    
Max Wind Speed 9 mph    
Max Gust Speed 13 mph    
Visibility 9 miles    
Events Rain    
T = Trace of Precipitation, MM = Missing Value Source: NWS Daily Summary

Daily Weather History Graph

Daily Weather History Graph

Search for Another Location

Airport:

Trip Planner

Search our weather history database for the weather conditions in past years. The results will help you decide how hot, cold, wet, or windy it might be!

Date:

Astronomy

May. 07, 2013 Rise Set
Actual Time 5:49 AM CDT 7:31 PM CDT
Civil Twilight 5:22 AM CDT 7:58 PM CDT
Nautical Twilight 4:49 AM CDT 8:30 PM CDT
Astronomical Twilight 4:15 AM CDT 9:05 PM CDT
Moon 4:16 AM CDT (5/7) 5:35 PM CDT (5/7)
Length of Visible Light 14h 36m
Length of Day
13h 42m
Waning Crescent, 5% of the Moon is Illuminated
May 7
Waning Crescent
May 9
New
May 17
First Quarter
May 24
Full
May 31
Last Quarter

Hourly Weather History & Observations

Time (CDT) Temp. Dew Point Humidity Pressure Visibility Wind Dir Wind Speed Gust Speed Precip Events Conditions
12:15 AM 50.0 °F 48.2 °F 94% 29.93 in 8.0 mi Calm Calm - N/A   Overcast
12:37 AM 50.0 °F 48.2 °F 94% 29.92 in 10.0 mi Calm Calm - 0.01 in Rain Light Rain
12:53 AM 50.0 °F 48.9 °F 96% 29.93 in 10.0 mi WSW 3.5 mph - 0.01 in   Overcast
1:32 AM 50.0 °F 48.2 °F 94% 29.91 in 9.0 mi WSW 5.8 mph - 0.00 in Rain Light Rain
1:53 AM 50.0 °F 48.9 °F 96% 29.93 in 8.0 mi WSW 4.6 mph - 0.00 in Rain Light Rain
2:32 AM 50.0 °F 48.2 °F 94% 29.91 in 10.0 mi WSW 4.6 mph - 0.00 in   Overcast
2:50 AM 50.0 °F 48.2 °F 94% 29.91 in 10.0 mi Calm Calm - 0.00 in   Overcast
2:53 AM 50.0 °F 48.9 °F 96% 29.92 in 10.0 mi West 3.5 mph - 0.00 in   Overcast
3:16 AM 50.0 °F 48.2 °F 94% 29.92 in 9.0 mi West 3.5 mph - N/A   Overcast
3:36 AM 50.0 °F 48.2 °F 94% 29.91 in 9.0 mi Calm Calm - N/A   Mostly Cloudy
3:53 AM 50.0 °F 48.9 °F 96% 29.92 in 9.0 mi Calm Calm - N/A   Mostly Cloudy
4:21 AM 48.2 °F 46.4 °F 93% 29.91 in 5.0 mi Calm Calm - N/A   Mostly Cloudy
4:29 AM 48.2 °F 48.2 °F 100% 29.92 in 5.0 mi Calm Calm - N/A   Mostly Cloudy
4:53 AM 50.0 °F 48.0 °F 93% 29.94 in 7.0 mi West 3.5 mph - N/A   Mostly Cloudy
5:18 AM 50.0 °F 48.2 °F 94% 29.93 in 7.0 mi Calm Calm - 0.01 in   Mostly Cloudy
5:53 AM 50.0 °F 48.0 °F 93% 29.95 in 8.0 mi Calm Calm - 0.01 in   Overcast
6:53 AM 51.1 °F 48.0 °F 89% 29.97 in 8.0 mi North 3.5 mph - N/A   Overcast
7:53 AM 51.1 °F 48.9 °F 92% 30.00 in 9.0 mi WNW 3.5 mph - N/A   Overcast
8:53 AM 53.1 °F 46.9 °F 80% 30.01 in 10.0 mi NNE 4.6 mph - N/A   Overcast
9:53 AM 55.0 °F 48.9 °F 80% 30.03 in 10.0 mi Variable 3.5 mph - N/A   Overcast
10:53 AM 57.9 °F 48.0 °F 70% 30.02 in 10.0 mi Calm Calm - N/A   Overcast
11:53 AM 59.0 °F 50.0 °F 72% 30.02 in 10.0 mi WSW 6.9 mph - N/A   Overcast
12:01 PM 57.2 °F 48.2 °F 72% 30.02 in 10.0 mi West 6.9 mph - N/A   Overcast
12:33 PM 57.2 °F 48.2 °F 72% 30.02 in 10.0 mi SW 5.8 mph - N/A   Overcast
12:53 PM 59.0 °F 51.1 °F 75% 30.03 in 10.0 mi WSW 8.1 mph - N/A   Overcast
1:08 PM 59.0 °F 48.2 °F 67% 30.02 in 10.0 mi WSW 8.1 mph - N/A   Overcast
1:53 PM 62.1 °F 50.0 °F 65% 30.02 in 10.0 mi WSW 6.9 mph - N/A   Overcast
2:53 PM 64.9 °F 48.9 °F 56% 30.00 in 10.0 mi Calm Calm - N/A   Clear
3:53 PM 64.9 °F 48.9 °F 56% 29.99 in 10.0 mi Calm Calm - N/A   Clear
4:53 PM 66.9 °F 51.1 °F 57% 29.99 in 10.0 mi WSW 8.1 mph - N/A   Partly Cloudy
5:53 PM 66.9 °F 50.0 °F 54% 29.99 in 10.0 mi SW 5.8 mph - N/A   Scattered Clouds
6:53 PM 64.9 °F 51.1 °F 61% 29.99 in 10.0 mi WSW 3.5 mph - N/A   Clear
7:53 PM 57.9 °F 54.0 °F 87% 30.00 in 10.0 mi Calm Calm - N/A   Clear
8:53 PM 55.0 °F 53.1 °F 93% 30.01 in 10.0 mi WSW 3.5 mph - N/A   Clear
9:53 PM 54.0 °F 52.0 °F 93% 30.03 in 10.0 mi WSW 5.8 mph - N/A   Clear
10:53 PM 53.1 °F 51.1 °F 93% 30.03 in 10.0 mi Calm Calm - N/A   Clear
11:53 PM 52.0 °F 50.0 °F 93% 30.04 in 10.0 mi Calm Calm - N/A   Clear